Tracking 29932 objects as of 4-Dec-2024
HD Live streaming from Space Station
objects crossing your sky now

STARLINK-30574

Track STARLINK-30574 now!
10-day predictions
STARLINK-30574 is classified as:


NORAD ID: 58094
Int'l Code: 2023-160V
Perigee: 565.4 km
Apogee: 566.9 km
Inclination: 43.0 °
Period: 95.8 minutes
Semi major axis: 6937 km
RCS: Unknown
Launch date: October 18, 2023
Source: United States (US)
Launch site: AIR FORCE EASTERN TEST RANGE (AFETR)
Your satellite tracking list
Your tracking list is empty




NASA's NSSDC Master Catalog

Two Line Element Set (TLE):
1 58094U 23160V   24338.67747826  .00001114  00000-0  97463-4 0  9995
2 58094  42.9994  64.9262 0001091 280.7763  79.2957 15.02553648 63577
Source of the keplerian elements: AFSPC